Total_Precipitation_Accumulation
0.34 0.35 0.32 0.39 0.44 0.48 0.75 1.40 1.66 1.50 1.25 1.63 2.15 2.25 2.51 2.42 2.26 2.30 2.23 2.17 2.06 1.91
0.42 0.39 0.40 0.56 0.44 0.60 0.56 0.82 1.17 1.49 1.35 1.22 1.54 2.04 2.37 2.32 2.26 2.31 2.23 2.08 1.91 1.53
0.34 0.38 0.40 0.54 0.38 0.50 0.57 0.81 1.20 1.50 1.85 1.86 1.48 1.48 2.06 2.17 2.09 2.00 1.77 1.90 1.84 1.54
0.49 0.49 0.53 0.55 0.59 0.60 0.80 1.05 1.30 1.66 2.17 2.71 2.42 2.06 1.88 1.89 1.84 1.69 1.56 1.74 1.77 1.63
0.71 0.70 0.70 0.87 0.89 0.99 1.17 1.28 1.55 1.87 2.29 2.61 2.88 2.70 2.40 2.06 1.85 1.83 1.59 1.51 1.84 1.72
1.02 0.82 1.09 1.18 1.43 1.66 1.73 1.83 1.88 1.94 2.06 2.21 2.29 2.59 2.37 1.89 1.54 1.55 1.48 1.31 1.31 1.34
0.76 1.03 1.24 1.25 1.33 1.71 1.87 1.69 1.43 1.39 1.38 1.13 1.14 1.54 1.81 1.90 1.90 1.78 1.70 1.62 1.53 1.35
0.72 1.12 1.31 1.61 1.60 1.34 1.07 0.97 0.94 0.85 0.80 0.81 0.96 1.38 1.51 1.66 1.74 2.00 2.04 1.88 1.84 1.89
0.75 0.67 0.74 0.71 0.63 0.67 0.82 0.87 0.76 0.59 0.54 0.54 0.65 1.21 1.45 1.75 1.76 1.89 2.20 2.04 1.79 1.77
0.39 0.39 0.33 0.26 0.28 0.33 0.38 0.44 0.58 0.70 0.56 0.37 0.59 1.13 1.01 1.46 1.45 1.68 2.06 2.15 2.10 2.20
0.15 0.14 0.17 0.27 0.34 0.35 0.33 0.26 0.25 0.36 0.75 1.09 1.02 1.07 0.94 1.15 1.03 1.20 1.68 1.96 2.10 2.28
0.15 0.16 0.26 0.40 0.47 0.39 0.35 0.42 0.35 0.34 0.39 0.52 0.90 1.22 0.74 0.63 0.69 0.82 0.87 1.13 1.52 1.85
0.30 0.28 0.36 0.35 0.28 0.28 0.38 0.39 0.52 0.61 0.43 0.55 0.34 0.78 0.71 0.48 0.34 0.66 0.69 0.70 1.01 1.52
0.38 0.38 0.32 0.27 0.27 0.33 0.38 0.45 0.43 0.43 0.51 0.50 0.41 0.51 0.65 0.66 0.42 0.55 0.62 0.52 0.49 0.64